SCP
0 0 -0 -0 0 0 0 0 0 0 0 0 0 0 0 0 0 0 0 0 0 0 0 0 0 0 0 0 0 0 0 0 0 0 0 0 0 0 0 0 0 0 0 0
0 0 0 0 0 0 0 0 0 0 0 0 0 0 0 0 0 0 0 0 0 0 0 0 0 0 0 0 0 0 0 0 0 0 0 0 0 0 0 0 0 0 0 0
0 0 0 0 0 0 0 0 0 0 0 0 0 0 0 0 0 0 0 0 0 0 0 0 0 0 0 0 0 0 -0 -0 0 0 0 0 0 0 0 0 0 0 0 0
0 0 0 0 0 0 0 0 0 0 0 0 0 0 0 0 0 0 0 0 0 0 0 0 0 -0 -0 -0 0 0 -0 -0 -0 0 0 0 0 0 0 0 0 0 0 0
0 0 0 0 0 0 0 0 0 0 0 0 0 0 0 0 0 0 0 0 0 0 0 -0 -0 -0 -0 -0 0 0 0 0 0 0 0 0 0 0 0 0 0 0 0 0
0 0 0 0 0 0 0 0 0 0 0 0 0 0 0 0 0 0 0 0 0 0 -0 -0 -0 -0 -0 -0 -0 0 0 0 0 0 0 0 0 0 0 0 0 0 0 0
0 0 0 0 0 0 0 0 0 0 0 0 0 0 0 0 0 0 0 -0 0 -0 0 0 0 0 0 0 -0 0 0 0 0 0 0 0 0 0 0 0 0 0 0 0
0 0 0 0 0 0 0 0 0 0 0 0 0 0 0 0 0 0 0 0 0 0 0 0 0 0 0 0 0 0 0 0 0 -0 0 0 0 0 0 0 0 0 0 0
0 0 0 0 0 0 0 0 0 0 0 0 0 -0 -0 0 0 0 0 0 0 0 0 0 0 0 0 0 0 0 0 0 0 -0 0 0 0 0 0 0 0 0 0 0
0 0 0 0 0 0 0 0 0 0 -0 -0 -0 0 0 0 0 0 0 0 0 0 0 0 0 0 0 0 0 0 0 0 0 0 0 0 0 0 0 0 0 0 0 0
0 0 0 0 0 0 0 0 0 0 0 0 0 0 0 0 0 0 0 0 0 0 0 0 0 0 0 0 0 0 0 0 0 0 0 0 0 0 0 0 0 0 0 0
0 0 0 0 0 0 0 0 0 0 0 0 0 0 0 0 0 0 0 0 0 0 0 0 0 0 0 0 0 0 0 0 0 0 0 0 0 0 0 0 0 0 0 0
0 0 0 0 0 0 0 0 0 0 0 0 0 0 0 0 0 0 0 0 0 0 0 0 0 0 0 0 0 0 0 0 0 0 0 0 0 0 0 0 0 0 0 0
0 0 0 0 0 0 0 0 0 0 0 0 0 0 0 0 0 0 0 0 0 0 0 0 0 0 0 0 0 0 0 0 0 0 0 0 0 0 0 0 0 0 0 0
0 0 0 0 0 0 0 0 0 0 0 0 0 0 0 0 0 0 0 0 0 0 0 0 0 0 0 0 0 0 0 0 0 0 0 0 0 0 0 0 0 0 0 0
0 0 0 0 0 0 0 0 0 0 0 -0 -0 -0 0 0 0 0 0 0 0 0 0 0 0 0 0 0 0 0 0 0 0 0 0 0 0 0 0 0 0 0 0 0
0 0 0 0 0 0 0 0 0 0 0 -0 -0 -0 0 0 0 0 0 0 0 0 0 0 0 0 0 0 0 0 0 0 0 0 0 0 0 0 0 0 0 0 0 0
0 0 0 0 0 0 0 0 0 0 0 -0 -0 -0 0 0 0 0 0 0 0 0 0 0 0 0 0 0 0 0 0 0 0 0 0 0 0 0 0 0 0 0 0 0
-0 -0 0 0 0 0 0 0 0 0 0 0 0 0 0 0 0 0 0 0 0 0 0 0 0 0 0 0 0 0 0 0 0 0 0 0 0 0 0 0 0 0 0 0
-0 -0 0 0 0 0 0 0 0 0 0 0 0 0 0 0 0 0 0 0 0 0 0 0 0 0 0 0 0 0 0 0 0 0 0 0 0 0 0 0 0 0 0 0
-0 -0 0 0 0 0 0 0 0 0 0 0 0 0 0 0 0 0 0 0 0 0 0 0 0 0 0 0 0 0 0 0 0 0 0 0 0 0 0 0 -0 0 0 0
0 0 0 0 0 0 0 0 0 0 0 0 0 0 0 0 0 0 0 0 0 0 0 0 0 0 0 0 0 0 0 0 0 0 0 0 0 0 0 -0 -0 0 0 0
0 0 0 0 0 0 0 0 0 0 0 0 0 0 0 0 0 0 0 0 0 0 0 0 0 0 0 0 0 0 0 0 0 0 0 0 0 0 0 0 0 0 0 0
0 0 0 0 0 0 0 0 0 0 0 0 0 0 0 0 0 0 0 0 0 0 0 0 0 0 0 0 0 0 0 0 0 0 0 0 0 0 0 -0 -0 -0 0 0
0 0 0 0 0 0 0 0 0 0 0 0 0 0 0 0 0 0 0 0 0 0 0 0 0 0 0 0 0 0 0 0 0 0 0 0 0 0 0 -0 -0 -0 0 0
0 0 0 0 0 0 0 0 0 0 0 0 0 0 0 0 0 0 0 0 0 0 0 0 0 0 0 0 0 0 0 0 0 0 0 0 0 0 0 -0 -0 -0 0 0
0 0 0 0 0 0 0 0 0 0 0 0 0 0 0 0 0 0 0 0 0 0 0 0 0 0 0 0 0 0 0 0 0 0 0 0 0 0 0 0 0 0 0 0
Wind_Speed
7 7 5 8 9 8 10 10 10 11 11 12 8 6 5 3 2 2 2 2 2 2 2 2 2 2 2 2 2 2 2 2 2 3 3 2 2 2 2 2 2 3 2 3
6 5 6 10 11 11 12 10 11 11 14 10 6 3 4 4 3 3 3 3 2 2 2 2 2 2 2 3 2 2 1 2 3 2 2 2 2 2 2 2 2 2 2 2
5 3 4 9 10 10 8 8 8 12 11 4 4 4 5 4 4 4 4 3 3 2 3 3 2 2 2 3 3 2 2 2 2 2 2 3 3 2 2 2 2 2 2 2
3 1 8 8 3 5 7 7 8 8 6 5 5 5 4 4 4 4 4 3 3 3 2 2 2 2 2 2 1 1 2 2 2 2 3 3 3 3 3 2 2 2 2 2
2 4 10 8 4 4 5 7 6 8 7 5 2 3 3 2 3 4 3 3 3 2 2 1 1 1 1 1 1 1 2 2 3 3 3 3 3 3 3 2 2 2 2 2
3 4 9 7 3 1 2 6 3 4 4 3 0 2 4 2 2 2 2 1 1 1 1 1 1 1 1 1 1 2 2 3 3 2 2 2 3 3 3 2 2 3 3 2
6 7 10 6 2 3 4 6 2 2 3 3 4 5 3 2 3 2 2 2 1 1 1 1 1 1 1 1 2 3 2 2 2 2 2 2 2 2 2 2 2 2 2 2
5 6 11 3 5 6 6 1 1 1 2 3 4 4 3 3 3 2 2 1 0 0 1 0 1 1 1 2 2 2 2 2 2 2 2 2 1 2 2 2 2 2 2 2
9 9 4 3 5 3 1 2 2 2 3 3 3 4 4 3 3 2 2 1 1 1 1 1 0 1 1 2 1 1 2 2 2 2 2 2 1 1 2 2 2 2 2 2
5 8 5 4 3 3 2 3 4 3 3 3 3 4 3 3 2 2 2 1 1 0 1 1 1 1 1 1 1 1 1 2 2 2 2 2 2 1 1 1 2 2 2 2
7 7 4 4 4 4 4 3 3 3 2 3 3 3 3 3 2 2 2 1 1 1 1 2 1 1 1 1 0 1 1 1 2 2 2 2 2 2 2 2 2 2 2 2
9 6 5 5 3 2 3 4 4 3 3 3 2 3 3 3 2 2 2 1 1 1 1 1 1 1 1 1 0 0 1 1 1 1 1 2 2 3 4 4 5 5 5 4
6 3 4 5 3 2 3 4 4 3 4 4 3 2 2 2 2 1 1 1 1 1 1 1 1 2 2 1 1 1 1 1 1 1 1 2 2 2 3 4 5 5 5 6
4 2 3 4 4 3 3 3 2 2 2 2 2 1 1 1 1 1 2 2 1 1 1 1 1 2 2 1 1 1 1 2 2 1 1 1 1 1 1 2 3 4 5 6
4 4 5 3 3 2 2 1 1 2 2 2 2 1 1 1 2 2 2 1 0 0 1 1 1 3 2 1 1 1 1 1 1 1 1 1 1 1 1 2 2 3 3 4
3 2 2 3 3 3 2 2 2 3 2 2 2 2 2 1 2 2 1 1 1 2 2 2 2 3 2 1 1 1 1 3 2 1 1 1 1 1 1 1 2 2 3 3
1 3 3 3 4 3 3 3 3 3 3 3 3 2 1 1 1 2 2 1 1 2 2 3 3 2 1 1 1 1 1 1 2 2 1 1 1 1 1 1 2 2 3 3
4 5 4 4 4 4 3 3 3 3 3 3 2 1 1 1 2 3 2 1 1 2 2 2 2 1 1 1 1 1 1 1 1 1 1 2 2 2 2 2 2 2 3 3
3 3 3 3 3 3 3 3 3 3 2 2 2 2 2 2 2 2 1 1 2 3 3 2 3 1 1 2 1 1 1 1 1 1 1 2 2 2 2 2 2 2 3 2
2 2 1 2 1 2 2 3 2 2 2 2 2 2 2 2 2 2 1 2 3 3 3 3 2 1 2 2 2 1 1 1 2 2 1 1 2 2 2 2 2 2 2 3
2 1 1 2 2 2 2 2 2 2 2 1 2 3 3 2 2 1 1 3 3 2 3 4 2 2 2 2 3 1 1 1 2 2 2 2 2 2 2 2 3 3 3 3
1 1 2 1 1 2 2 1 2 2 1 1 2 2 1 2 2 2 2 3 3 4 2 1 1 3 3 3 1 1 1 1 1 1 2 2 2 2 3 3 3 3 3 3
1 1 1 1 2 2 2 1 1 2 2 2 2 2 2 2 2 2 3 2 2 4 2 2 4 6 4 1 1 1 1 1 2 2 2 2 2 3 3 3 3 3 3 3
1 1 1 1 0 0 1 2 1 1 1 1 2 2 2 2 2 2 3 4 5 5 2 3 6 5 3 0 0 1 1 2 2 2 2 2 3 3 3 3 3 4 3 4
1 1 0 0 1 1 2 1 1 1 1 1 1 2 2 2 2 2 2 2 4 4 2 4 6 5 2 1 1 2 2 2 3 2 3 3 3 3 3 3 4 4 4 4
1 1 1 2 2 1 1 1 1 1 1 1 2 1 1 1 2 2 2 2 3 4 2 2 3 3 2 2 2 2 2 3 3 3 3 3 3 4 4 4 5 4 4 5
1 1 1 1 1 1 1 1 1 2 2 2 2 2 1 1 1 2 2 2 2 2 2 2 2 2 2 2 2 2 2 3 3 3 3 3 3 4 4 5 4 4 4 5
Wind_Direction
252 265 258 250 245 219 216 223 231 249 249 263 267 264 268 269 269 272 283 291 286 284 291 309 327 334 330 326 336 342 348 341 328 330 330 329 317 305 294 282 271 250 238 244
270 260 260 267 254 235 235 234 240 259 268 266 273 269 270 267 261 260 269 277 280 283 287 290 299 312 322 321 326 335 335 325 329 338 340 335 325 317 309 298 292 266 243 238
266 285 310 268 242 221 218 218 211 234 248 258 271 265 258 258 255 257 265 273 269 265 265 272 276 287 294 306 320 327 328 329 329 332 331 326 322 330 318 298 299 276 257 253
263 356 246 245 220 202 218 243 226 236 248 244 248 267 264 243 232 252 267 268 263 265 275 281 285 295 301 308 315 324 329 325 328 332 325 328 329 326 320 308 293 278 261 262
197 241 271 285 254 190 206 263 240 232 256 270 292 314 290 253 224 241 249 252 250 246 254 268 272 286 305 307 320 324 316 316 319 314 314 323 321 317 314 313 315 305 277 259
193 221 247 255 248 182 127 279 262 206 239 256 169 286 273 287 287 275 272 262 261 259 261 238 253 190 188 257 283 291 299 303 307 306 302 305 304 305 308 306 306 314 310 290
216 235 260 259 232 127 175 251 259 204 222 214 216 234 272 313 313 293 282 277 252 208 208 233 218 173 199 237 266 292 308 314 317 316 309 304 308 308 307 312 315 311 310 308
192 220 252 213 143 186 220 257 255 258 241 231 245 269 280 284 285 288 291 296 258 211 276 286 192 175 222 265 294 314 323 327 324 324 324 330 322 319 322 325 319 310 314 313
201 222 244 172 197 225 227 244 261 258 260 244 260 269 273 276 282 284 276 281 273 207 269 313 250 180 226 285 318 331 341 337 329 334 335 330 312 315 326 331 318 306 309 307
247 258 256 252 257 282 272 254 270 264 264 252 252 266 276 285 293 298 297 285 279 185 256 295 314 323 248 286 320 332 331 329 334 339 335 333 326 323 315 310 303 301 302 299
252 270 291 269 248 260 275 276 282 287 270 252 250 270 271 280 289 286 291 290 234 220 252 278 305 317 311 303 343 346 329 327 333 334 329 326 327 313 310 296 299 303 291 286
237 231 222 250 251 253 261 270 266 273 288 283 243 253 265 271 276 277 280 281 276 261 257 270 278 295 303 297 253 282 331 334 326 326 327 329 333 333 325 322 326 335 330 322
241 254 242 258 276 270 262 269 273 262 257 271 276 252 247 268 275 269 273 268 258 259 252 247 263 284 292 289 280 258 264 289 297 310 310 315 324 333 330 332 336 338 338 338
244 247 265 255 260 275 264 274 287 291 283 269 271 276 258 273 282 270 266 261 252 243 246 235 250 276 284 282 283 288 280 289 302 290 291 297 304 309 311 320 328 330 332 338
252 234 233 256 286 297 294 298 306 300 304 308 297 273 256 254 267 276 281 276 253 245 258 249 265 282 288 275 276 276 290 284 287 293 294 296 302 308 312 315 315 318 326 333
283 275 243 249 263 278 296 293 277 282 289 289 286 276 267 264 281 297 293 234 195 250 266 262 262 271 272 264 280 289 281 293 313 310 312 311 308 304 304 306 309 312 316 321
237 267 262 263 267 273 269 262 257 265 272 272 272 274 285 319 318 302 292 277 249 255 262 258 261 266 263 250 251 275 287 293 317 327 301 289 287 286 285 287 290 298 303 310
237 239 235 233 244 259 275 279 271 266 262 266 270 246 219 226 252 273 289 308 318 309 287 266 259 258 253 260 249 258 263 273 281 277 288 287 290 288 288 287 291 297 305 315
259 250 255 252 244 237 252 265 269 266 267 253 235 233 238 243 246 257 266 271 273 285 286 273 276 290 265 260 266 213 225 254 282 280 278 283 303 299 293 290 293 297 302 313
288 281 274 279 275 243 255 267 268 271 265 230 218 233 259 263 246 240 244 256 250 248 255 268 275 267 259 255 270 216 212 240 261 273 276 275 278 285 287 287 288 292 298 300
289 292 291 286 289 281 263 255 247 261 269 221 211 230 249 267 251 223 234 275 281 251 250 270 275 264 260 261 268 223 224 241 254 261 270 275 278 281 282 284 286 288 289 292
281 281 285 291 295 300 295 268 242 246 256 244 239 236 246 269 269 257 240 247 268 280 285 264 265 269 274 271 233 229 239 243 250 259 263 265 266 270 274 279 281 284 285 284
275 276 281 284 279 294 313 297 252 232 229 232 237 237 238 249 248 250 278 273 264 281 293 261 274 282 283 270 211 223 240 250 256 258 258 258 259 262 266 271 273 275 277 279
267 280 286 299 349 7 309 303 301 280 254 254 250 242 239 263 276 253 253 285 295 299 294 283 292 299 307 355 221 239 249 255 255 254 256 256 256 258 261 265 269 271 271 273
243 249 261 270 261 267 271 288 315 306 295 290 285 268 247 237 248 268 271 272 284 303 303 295 300 308 321 305 269 262 260 256 253 251 249 256 258 258 259 261 263 267 269 270
259 254 256 252 254 264 270 262 271 284 291 299 306 294 276 266 259 269 275 275 276 291 298 293 299 302 296 280 270 266 264 275 284 274 259 261 261 261 263 263 263 263 265 266
285 280 286 294 288 271 260 251 256 268 265 263 284 292 289 291 290 288 284 283 284 286 285 285 283 277 276 273 270 267 264 262 263 263 261 260 260 260 260 261 264 265 266 266